Location: Unspecified
(36.9193°S, 174.7252°E)
Time: 00:47:19
(UTC+12:00)

Envisat - Visible Passes

Search period start: 26 May 2018 00:00
Search period end: 05 June 2018 00:00
Orbit: 764 x 766 km, 98.2° (Epoch: 24 May)

Date Brightness Start Highest point End Pass type
(mag) Time Alt. Az. Time Alt. Az. Time Alt. Az.
27 May 5.7 06:20:10 10° E 06:22:48 14° ESE 06:25:28 10° SSE visible
29 May 5.2 06:43:59 10° ENE 06:48:04 25° ESE 06:52:11 10° SSE visible
30 May 5.9 06:10:23 10° ESE 06:11:49 11° ESE 06:13:14 10° SE visible
01 Jun 5.5 06:33:26 10° ENE 06:37:02 20° ESE 06:40:40 10° SSE visible
04 Jun 5.6 06:23:02 10° E 06:26:01 16° ESE 06:28:59 10° SSE visible
